Terminal Aerodrome Forecast
Issued by NWS

Home | Current Version | Previous Version | Text Only | Print | Product List | Glossary On
Versions: 1 2 3 4 5 6 7 8 9 10 11 12 13 14 15 16 17 18 19 20 21 22 23 24 25 26 27 28 29
000
FTAK31 PAFA 161139
TAFAUN
TAF
PAUN 161139Z 1612/1712 08010KT P6SM OVC050
     FM161900 12009KT P6SM VCSH BKN035 BKN100
     FM162300 12009KT P6SM VCSH BKN060 BKN100
     FM170600 14006KT P6SM BKN120=

USA.gov is the U.S. government's official web portal to all federal, state and local government web resources and services.